Location: Ercuis
(49.2347°N, 2.3041°E)
Time: 19:48:42
(UTC+00:00)

Daily predictions for brighter satellites

Satellite Brightness Start Highest point End
(mag) Time Altitude Azimuth Time Altitude Azimuth Time Altitude Azimuth
Cosmos 1864 Rocket 4.5 18:40:51 10° S 18:47:04 79° E 18:53:16 10° NNE
DMSP B5D1-3 4.5 18:43:15 10° NNE 18:48:19 67° ESE 18:53:21 10° S
SPOT 1/Viking Rocket 3.6 18:43:52 10° SSE 18:49:02 72° ENE 18:54:12 10° N
ATLAS 2AS CENTAUR R/B 3.5 18:45:04 10° WSW 18:52:14 58° NW 18:59:09 10° NE
ATLAS CENTAUR R/B 3.3 18:50:23 10° WNW 18:55:01 56° SW 19:02:17 10° SE
Cosmos 1898 Rocket 3.8 18:50:04 10° NNW 18:55:23 75° WSW 19:00:40 10° SSE
Cosmos 1151 Rocket 2.9 18:52:48 10° N 18:57:06 76° E 19:01:21 10° SSE
ARGOS Delta rocket 4.1 18:52:34 10° SSE 18:57:38 57° ENE 19:02:27 10° N
Cosmos 2360 Rocket 2.3 18:52:02 10° SSW 18:57:41 90° WNW 19:03:22 10° NNE
Okean O Rocket 2.7 18:55:15 10° ESE 18:58:57 27° ENE 19:02:41 10° N
Cosmos 1340 2.6 18:57:12 10° S 19:00:19 44° E 19:03:27 10° NNE
USA 186 2.3 18:59:22 10° SE 19:02:22 40° ENE 19:05:26 10° N
Meteor PRIRODA 3.4 18:59:24 10° SSE 19:02:42 86° WSW 19:06:02 10° NNW
Resurs 01 Rocket 1.9 18:59:08 10° SE 19:03:22 47° ENE 19:07:38 10° N
Cosmos 2322 Rocket 2.8 19:00:57 10° SW 19:06:37 65° WNW 19:12:19 10° NNE
Cosmos 2237 Rocket 3.9 19:05:01 10° ESE 19:07:00 12° E 19:08:59 10° ENE
Helios 1A 2.8 19:05:10 10° NNE 19:09:14 68° ESE 19:13:16 10° S
ACS3 Solar Sail 2.5 19:06:05 10° SE 19:11:56 39° ENE 19:17:48 10° N
BlueWalker 3 2.1 19:08:37 10° WNW 19:12:22 62° NNE 19:15:32 14° E
NOSS 2-1 (E) 4.0 19:09:16 10° NNW 19:12:43 41° NE 19:16:31 13° ESE
Cosmos 44 Rocket 3.2 19:08:14 10° NW 19:13:03 78° NE 19:17:37 11° SE
Cosmos 2333 Rocket 2.5 19:08:50 10° SW 19:14:36 74° WNW 19:20:24 10° NNE
Okean-O 3.9 19:12:12 12° ESE 19:15:10 24° ENE 19:18:41 10° N
SL-08 R/B 3.5 19:11:42 10° NNE 19:16:39 83° WNW 19:21:35 10° SSW
Feng Yun 1-1 Rocket 4.4 19:11:24 10° SSE 19:17:02 62° ENE 19:22:51 10° N
ATLAS 3B R/B 4.0 19:10:10 10° NW 19:17:37 47° WSW 19:24:52 10° S
SKYMED 3 4.5 19:13:49 10° NNE 19:17:58 85° WNW 19:22:05 10° SSW
Cosmos 2219 Rocket 2.2 19:12:55 10° SSW 19:18:35 74° ESE 19:24:15 10° NNE
Cosmos 1626 3.6 19:18:58 10° NNW 19:21:41 30° W 19:24:22 10° SSW
Meteor 1-5 Rocket 4.4 19:16:21 10° SSW 19:21:58 84° WNW 19:27:49 10° N
NOSS 2-1 (D) 3.7 19:19:15 10° NNW 19:22:46 51° NE 19:26:15 16° ESE
CSL-04 Rocket 3.7 19:18:18 10° SSE 19:23:37 64° ENE 19:28:54 10° N
BREEZE-M DEB (TANK) 2.0 19:21:46 10° SW 19:23:47 45° SSE 19:25:17 19° E
Cosmos 1842 3.6 19:21:59 10° N 19:25:24 38° ENE 19:27:54 16° SE
SL-16 R/B 4.0 19:21:50 10° WSW 19:26:58 34° NW 19:32:08 10° NNE
USA 229 DEB 4.3 19:19:45 10° NW 19:27:08 70° SW 19:35:10 10° SSE
USA 229 4.3 19:19:54 10° NW 19:27:18 71° SW 19:35:18 10° SSE
CZ-4B R/B 4.4 19:25:09 10° S 19:29:41 46° W 19:34:18 10° NNW
SJ-6B 3.9 19:26:27 10° S 19:29:55 41° W 19:33:23 10° NNW
Cosmos 1766 Rocket 3.6 19:27:58 10° S 19:32:12 55° E 19:36:29 10° NNE
USA 267 3.9 19:29:00 10° E 19:35:11 50° N 19:41:28 10° WNW
Cosmos 2369 Rocket 4.4 19:33:08 10° N 19:35:47 13° NNE 19:38:27 10° NE
BREEZE-M R/B 3.8 19:32:36 10° W 19:36:47 88° S 19:49:01 13° E
Meteor 2-17 Rocket 4.5 19:32:37 10° N 19:38:38 62° ENE 19:44:32 10° SSE
Cosmos 2322 3.7 19:33:52 10° S 19:39:24 61° ESE 19:44:59 10° NE
USA 276 1.8 19:37:32 10° W 19:40:22 72° N 19:41:31 30° ENE
Cosmos 1066 Rocket 4.4 19:35:19 10° NNW 19:41:12 82° W 19:47:03 10° S
Cosmos 1400 Rocket 2.8 19:38:32 10° NNW 19:42:24 76° W 19:46:11 10° S
PSLV R/B 3.8 19:44:58 26° SE 19:46:41 48° ENE 19:50:08 10° N
Cosmos 1707 2.6 19:43:28 10° N 19:46:59 56° ENE 19:48:44 26° SSE
Cosmos 1315 Rocket 4.0 19:44:09 10° NNE 19:47:28 25° ENE 19:48:17 23° E
CZ-4 R/B 2.7 19:44:53 10° SSW 19:48:26 38° W 19:52:03 10° NNW
Cosmos 1733 3.8 19:49:19 29° E 19:49:21 29° E 19:52:23 10° NNE
Cosmos 1891 Rocket 4.4 19:43:23 10° S 19:49:23 68° E 19:55:30 10° NNE
Cosmos 1726 2.7 19:46:45 10° SSW 19:49:28 43° WNW 19:52:12 10° N
Cosmos 1408 Rocket 4.4 19:50:28 26° ESE 19:51:20 28° E 19:55:07 10° NNE
Cosmos 1536 2.9 19:55:08 27° SSE 19:56:47 46° E 20:00:28 10° NNE
KORONAS-FOTON 3.7 19:53:34 10° NNW 19:57:18 83° WSW 19:59:46 20° S
Lacrosse 4 Rocket 2.0 19:53:12 10° NW 19:57:28 55° WSW 20:00:26 18° S
COSMOS 2428 2.6 19:52:48 10° SSW 19:58:27 69° ESE 20:04:10 10° NNE
Cosmos 1818 3.5 19:53:11 10° SW 19:58:40 88° SE 20:04:11 10° NE
Nadezhda 4 Rocket 4.1 19:55:14 10° N 20:01:25 61° ENE 20:05:35 22° SSE
Cosmos 1356 Rocket 3.3 19:57:23 10° N 20:01:35 78° ENE 20:03:50 27° SSE
Meteor 1-4 Rocket 2.0 19:58:56 10° NNW 20:01:37 66° W 20:02:21 41° SSW
Cosmos 1943 Rocket 2.5 19:58:37 10° NNW 20:03:59 50° NE 20:06:28 30° ESE
Cosmos 1674 3.6 20:02:17 10° NNW 20:05:27 40° W 20:08:24 11° SSW
Meteor 1-14 Rocket 4.1 20:00:50 10° S 20:06:23 87° E 20:11:57 10° NNE
Cosmos 1328 Rocket 4.3 20:02:28 10° NNW 20:06:40 52° W 20:10:49 10° S
Cosmos 1513 Rocket 4.3 20:02:14 10° S 20:08:17 85° E 20:14:24 10° N
SL-14 R/B 4.5 20:06:11 10° NNE 20:09:04 24° ENE 20:09:04 24° ENE
USA 59 Rocket 0.1 20:05:55 10° NW 20:09:42 74° SW 20:11:54 31° SSE
Terra 2.5 20:09:10 32° E 20:10:22 37° ENE 20:14:41 10° N
Cosmos 1464 Rocket 3.9 20:05:35 10° S 20:11:49 71° E 20:18:10 10° NNE
Meteor 1-11 Rocket 3.8 20:09:42 18° SSE 20:13:50 55° E 20:19:16 10° NNE
Cosmos 1805 Rocket 4.4 20:14:26 30° ENE 20:14:26 30° ENE 20:17:46 10° NNE
Ariane Rocket 3.9 20:14:45 29° E 20:15:53 32° ENE 20:20:21 10° N
Cosmos 1125 Rocket 3.5 20:11:43 10° NNW 20:16:53 61° ENE 20:18:45 38° SE
SPOT 3 Rocket 4.4 20:17:15 30° E 20:18:24 33° ENE 20:22:57 10° N
USA 290 2.2 20:16:09 10° NNW 20:19:25 78° WSW 20:19:43 69° SSW
Cosmos 2278 Rocket 2.1 20:14:33 10° NNW 20:20:15 90° NNE 20:22:57 33° SSE
ERS-1 Rocket 3.1 20:19:35 38° ESE 20:21:10 55° ENE 20:26:05 10° N
CZ-4B R/B 4.3 20:16:53 10° SSW 20:22:03 41° W 20:27:11 10° NNW
BREEZE-M DEB (TANK) 3.9 20:19:16 10° W 20:22:26 86° N 20:26:06 27° E
Meteor 2-9 Rocket 4.1 20:20:43 32° SSE 20:23:00 55° E 20:28:16 10° NNE
USA 306 4.0 20:22:01 10° SW 20:23:20 22° SSW 20:23:20 22° SSW
NOSS 2-1 (C) 4.0 20:22:29 10° NW 20:26:12 53° SW 20:27:51 35° S
SPOT 5 2.7 20:24:19 34° SSE 20:26:25 88° WSW 20:30:59 10° NNW
IRS-1A Rocket 4.3 20:25:49 34° SSE 20:28:23 72° ENE 20:34:07 10° NNW
Cosmos 2034 Rocket 3.9 20:26:34 23° S 20:30:36 67° E 20:36:45 10° NNE
Aureole 1 4.5 20:29:30 10° NNW 20:32:22 64° W 20:32:22 64° W
Okean 3 Rocket 3.8 20:28:16 11° SSW 20:32:33 69° WNW 20:37:01 10° N
Okean O Rocket 2.8 20:31:49 15° SSW 20:35:04 39° W 20:39:15 10° NNW
Cosmos 2208 Rocket 4.4 20:35:49 41° E 20:35:49 41° E 20:40:20 10° NE
NOSS 0 Rocket 3.8 20:32:45 10° SSW 20:39:00 82° ESE 20:45:17 10° NNE
Resurs 01 Rocket 3.9 20:36:38 10° SW 20:40:02 21° W 20:43:27 10° NW
USA 215 3.4 20:35:44 10° ENE 20:42:01 47° SE 20:48:15 10° SSW
Meteor 1-21 4.4 20:41:06 10° N 20:46:44 55° ENE 20:47:41 49° ESE
Cosmos 2228 Rocket 4.0 20:42:50 10° N 20:46:31 35° NE 20:46:31 35° NE
MOS 1 Rocket 3.5 20:45:58 44° S 20:47:32 77° WSW 20:52:45 10° NNW
Cosmos 2237 Rocket 2.0 20:46:17 22° SSW 20:50:00 72° ESE 20:55:38 10° NNE
BlueWalker 3 3.0 20:46:48 10° WNW 20:49:46 36° WSW 20:49:46 36° WSW
Okean-O 3.5 20:49:39 31° SSW 20:51:18 45° W 20:55:33 10° NNW
Cosmos 1805 4.3 20:55:18 35° NNE 20:55:18 35° NNE 20:57:32 10° NNE
Aureole 3 Rocket 4.0 20:47:44 16° S 20:53:56 86° E 20:59:27 10° N
ACS3 Solar Sail 2.8 20:50:27 13° SSW 20:55:55 45° W 21:02:02 10° NNW
Sich 1 2.9 20:57:04 79° NNE 20:57:04 79° NNE 21:01:09 10° N
CZ-4C R/B 4.5 20:56:14 10° NNE 20:58:28 34° NNE 20:58:28 34° NNE
Cosmos 2219 Rocket 4.4 20:58:24 10° W 21:03:06 26° NW 21:07:49 10° NNE
Cosmos 2279 Rocket 4.3 21:06:50 46° E 21:06:50 46° E 21:12:34 10° NNE
BREEZE-M DEB (TANK) 3.6 20:52:20 10° W 21:09:20 89° N 21:10:46 54° E
Cosmos 1500 Rocket 3.9 21:11:22 57° WSW 21:11:43 60° WNW 21:16:04 10° N
Cosmos 1743 Rocket 3.9 21:16:41 61° NNW 21:16:41 61° NNW 21:20:26 10° N
USA 267 3.2 21:16:20 57° ESE 21:17:53 86° NNE 21:24:29 10° WNW
Cosmos 1980 3.9 21:13:06 10° SW 21:18:46 70° WNW 21:24:28 10° NNE
Cosmos 2369 Rocket 2.8 21:15:59 10° NNW 21:21:26 43° NE 21:21:39 42° ENE
Cosmos 2298 Rocket 4.0 21:16:49 10° NNW 21:22:08 76° WSW 21:22:14 76° WSW
Spot 2 Rocket 3.6 21:21:59 63° WSW 21:22:16 65° WSW 21:27:17 10° NNW
Cosmos 1315 Rocket 4.3 21:20:02 10° NNW 21:23:29 31° W 21:23:29 31° W
Cosmos 2150 Rocket 4.1 21:22:04 10° NNW 21:27:07 69° W 21:27:07 69° W
Cosmos 1975 4.5 21:32:52 29° N 21:32:52 29° N 21:34:55 10° N
SL-16 R/B 3.3 21:49:08 34° NE 21:49:08 34° NE 21:52:21 10° NNE
NOSS 3-4 (A) 3.8 21:40:21 10° NW 21:47:01 68° NE 21:47:59 61° E
NOSS 3-4 (C) 3.9 21:40:27 10° NW 21:47:07 67° NE 21:48:05 61° E
Cosmos 1943 Rocket 3.4 21:42:44 10° NW 21:47:29 30° WSW 21:47:58 30° WSW
Terra 3.2 21:47:52 30° W 21:47:59 30° W 21:52:09 10° NNW
Ariane Rocket 3.9 21:54:54 40° W 21:54:54 40° W 21:59:29 10° NNW
Cosmos 2266 Rocket 4.1 21:49:47 10° N 21:55:29 65° NE 21:55:29 65° NE
SPOT 3 Rocket 4.5 21:57:52 40° W 21:57:52 40° W 22:02:32 10° NNW
USA 59 Rocket 2.9 21:57:31 10° W 21:58:17 11° WSW 21:58:17 11° WSW
Cosmos 2278 Rocket 4.3 22:00:10 10° WNW 22:03:31 16° W 22:04:48 15° WSW
Cosmos 1655 Rocket 4.3 22:10:27 10° N 22:15:58 60° NE 22:15:58 60° NE
USA 215 3.3 22:18:44 10° NE 22:25:17 73° NNW 22:31:48 10° WSW
Cosmos 2237 Rocket 4.1 22:29:57 10° W 22:34:37 26° NW 22:39:18 10° NNE
ATLAS 2AS CENTAUR R/B 4.5 22:31:58 10° NW 22:37:44 26° NNE 22:43:20 10° ENE
Cosmos 2369 Rocket 3.7 23:00:10 10° NW 23:03:25 29° WNW 23:03:25 29° WNW
SL-16 R/B 3.8 23:30:58 29° NW 23:31:16 29° NW 23:36:11 10° NNE
